星链-30349 (STARLINK-30349 )

导读

STARLINK-30349是美国太空探索技术公司SpaceX星链星座中的一颗卫星,于2023年8月27日发射升空。星链计划旨在搭建全球卫星互联网星座,为全球提供覆盖偏远地区的高速互联网服务,STARLINK-30349承担着扩展星链星座网络覆盖范围、提升星座服务能力的作用。

Basic Information
目录编号:
57713
目录名称:
STARLINK-30349
国际标识:
2023-129R
轨道中心:
EARTH
卫星名称:
星链-30349
卫星全名:
星链-30349 (STARLINK-30349 )
卫星状态:
在轨 (已飞行1104 天)
发射日期:
2023-08-27 UTC
国别 :
美国 (US)
星等 :
--
Orbit Information
数据来源 国际轨道数据 AOE轨道数据
星历时间 2026-09-03T13:39:30+0800
22小时前
查看轨道信息
2026-08-28T23:00:00+0800
6天前
查看轨道信息
半长轴 6861.259km 6861.192km
偏心率 0.0001437 0.0001139
轨道倾角 43.004° 43.004°
近地点辐角 281.176° 224.445°
升交点赤经 195.416° 227.106°
平近点角 78.893° 204.231°
近地点 482.136km 482.273km
远地点 484.108km 483.837km
周期 94.268分钟 94.267分钟
每日圈数 15.275558 15.275783
Detailed Information
固有亮度:
5
最大亮度:
0.3
卫星平台:
Starlink v2.0 mini
覆盖范围:
全球
运营商:
太空探索技术公司
运营商所在国:
美国
制造商(研发单位):
太空探索技术公司
制造商所在国:
美国
使用方式:
暂无
Satellite Introduction
星链(Starlink)计划是由太空探索技术公司(SpaceX)提出的一个巨型低轨卫星互联网星座项目,计划在2019年至2024年间在太空搭建由约1.2万颗卫星组成的“星链”网络,其中1584颗将部署在地球上空550千米处的近地轨道,并从2020年开始工作。该卫星仍在工作。
2D Orbit Map
3D Orbit Map
Orbit Altitude Analysis Chart
Orbit Inclination Analysis Chart
Orbit Comprehensive Analysis Chart
View Comprehensive Chart
Conjunction Data List
Event ID Objects TCA Miss Dist (km) Collision Risk Probability Collision Risk Index (CRI) Action
CDM_260904-190105-771306-396621
2026-09-04T
19:01:28+0000
0.393 km
远距离
1.891436E-4 高风险 0.81
CDM_260905-032305-771306-696221
2026-09-05T
03:23:34+0000
0.510 km
远距离
1.315756E-4 高风险 0.77
CDM_260904-203505-771306-396621
2026-09-04T
20:35:37+0000
1.222 km
极远距离
6.38917E-6 低风险 0.51
CDM_260905-045705-771306-696221
2026-09-05T
04:57:43+0000
1.392 km
极远距离
5.465264E-6 低风险 0.5
CDM_260904-172705-771306-396621
2026-09-04T
17:27:19+0000
1.530 km
极远距离
3.066497E-6 低风险 0.45
CDM_260905-014905-771306-696221
2026-09-05T
01:49:25+0000
2.277 km
极远距离
1.415284E-6 低风险 0.38
CDM_260904-220905-771306-396621
2026-09-04T
22:09:46+0000
2.551 km
极远距离
9.098429E-7 极低风险 0.34
CDM_260904-155305-771306-396621
2026-09-04T
15:53:09+0000
2.811 km
极远距离
7.930781E-7 极低风险 0.33
CDM_260904-002505-771306-394021
2026-09-04T
00:25:53+0000
2.836 km
极远距离
6.605485E-7 极低风险 0.31